Location: North Evanston
(42.0634°N, 87.6976°W)
Time: 06:03:10
(UTC+00:00)

Tiros 1 despin weight - Visible Passes

Search period start: 10 May 2026 00:00
Search period end: 20 May 2026 00:00
Orbit: 555 x 591 km, 48.2° (Epoch: 9 May)

Date Brightness Start Highest point End Pass type
(mag) Time Alt. Az. Time Alt. Az. Time Alt. Az.
16 May ? 08:49:03 10° SSE 08:50:48 12° SE 08:52:34 10° ESE visible
17 May ? 08:50:15 14° S 08:52:23 19° SE 08:55:26 10° E visible
18 May ? 08:51:54 19° S 08:54:00 29° SE 08:57:42 10° E visible
19 May ? 08:53:30 23° SSW 08:55:41 43° SE 08:59:43 10° ENE visible
